Location: Monfort
(47.1967°N, 0.2115°W)
Time: 11:03:06
(UTC+00:00)

CZ-2D R/B - Pass Details

Date: 24 October 2020
Orbit: 521 x 537 km, 97.4° (Epoch: 27 November)

Event Time Altitude Azimuth Distance (km) Brightness Sun altitude
Rises 18:13:43 0° 164° (SSE) 2,654 6.7 -13.7°
Reaches altitude 10° 18:15:49 10° 164° (SSE) 1,767 5.8 -14.1°
Maximum altitude 18:19:38 84° 75° (ENE) 536 3.1 -14.7°
Drops below altitude 10° 18:23:28 10° 349° (NNW) 1,775 6.0 -15.4°
Sets 18:25:34 0° 348° (NNW) 2,667 7.0 -15.7°
